DateTimeUTC,F1_A11,F1_S11,BsB_S11,BsG_S11,BsR_S11,BbsB_S11,BbsG_S11,BbsR_S11,BaB_A11,BaG_A11,BaR_A11,Tu_S11,T_S11,Uu_S11,U_S11,P_S11,T1_A11
2021-11-22T05:00:00Z,00000200,21000000,,,,,,,0000.04,0000.20,-000.16,19.3,26.3,,00.0,0632.6,30.9
2021-11-22T05:01:00Z,00000200,21000000,,,,,,,-000.18,-000.21,0000.02,19.2,26.3,,00.0,0632.6,30.9
2021-11-22T05:02:00Z,00000200,21000000,,,,,,,-000.15,0000.39,0000.10,19.2,26.2,,00.0,0632.7,30.9
2021-11-22T05:03:00Z,00000200,61000000,,,,,,,0000.07,-000.14,-000.31,19.2,26.2,,00.0,0632.7,30.9
2021-11-22T05:04:00Z,00000200,41000000,-000.07,-000.04,0000.03,-000.12,0000.47,0000.27,0000.11,-000.00,0000.14,19.2,26.0,,00.0,0633.6,30.9
2021-11-22T05:05:00Z,00000200,01000000,-000.20,0000.27,-000.02,0000.55,-000.24,0000.12,-000.08,-000.23,-000.03,19.3,26.0,,00.0,0633.7,30.9
2021-11-22T05:06:00Z,00000200,01000000,-000.40,0000.43,0000.09,0000.02,0000.17,0000.04,0000.02,0000.21,0000.19,19.4,26.0,,00.0,0633.6,30.9
2021-11-22T05:07:00Z,00000200,01000000,0000.38,0000.35,0000.10,0000.05,0000.03,0000.43,-000.22,-000.18,-000.44,19.4,25.9,,00.0,0633.7,30.9
2021-11-22T05:08:00Z,00000200,01000000,-000.81,0000.35,-000.19,0000.42,0000.28,-000.20,0000.17,-000.05,0000.39,19.5,26.0,,00.0,0633.7,31.0
2021-11-22T05:09:00Z,00000200,01000000,0000.16,-000.02,-000.15,0000.11,0000.25,-000.32,0000.12,0000.00,-000.25,19.5,26.0,,00.0,0633.6,31.0
2021-11-22T05:10:00Z,00000200,01000000,0000.30,0000.05,0000.04,0000.36,0000.10,0000.07,0000.03,0000.11,0000.36,19.6,26.0,,00.0,0633.6,31.0
2021-11-22T05:11:00Z,00000200,01000000,-000.19,0000.33,-000.10,0000.21,0000.07,-000.00,-000.04,-000.23,-000.35,19.6,26.0,,00.0,0633.6,31.0
2021-11-22T05:12:00Z,00000200,01000000,0000.46,0000.09,0000.19,0000.06,0000.02,0000.02,-000.09,0000.69,0000.34,19.6,26.1,,00.0,0633.5,31.0
2021-11-22T05:13:00Z,00000200,01000000,0000.03,-000.07,0000.25,0000.14,-000.01,0000.33,0000.10,-000.22,-000.11,19.6,26.1,,00.0,0633.5,31.0
2021-11-22T05:14:00Z,00000200,01000000,-000.57,0000.01,0000.22,-000.65,0000.28,-000.10,0000.38,0000.13,0000.51,19.5,26.0,,00.0,0633.4,30.9
2021-11-22T05:15:00Z,00000200,01000000,-000.01,0000.23,0000.20,-000.41,0000.12,0000.15,-000.22,-000.20,-000.29,19.4,26.0,,00.0,0633.4,30.9
2021-11-22T05:16:00Z,00000200,01000000,-000.03,0000.29,0000.20,-000.60,0000.09,0000.21,0000.22,-000.02,-000.11,19.4,26.0,,00.0,0633.4,30.9
2021-11-22T05:17:00Z,00000200,01000000,-000.32,0000.48,0000.02,0000.08,-000.23,0000.18,0000.17,0000.48,0000.25,19.3,25.9,,00.0,0633.5,30.9
2021-11-22T05:18:00Z,00000200,01000000,-000.21,0000.16,-000.06,0000.39,0000.07,-000.23,-000.18,-000.08,0000.04,19.3,25.9,,00.0,0633.5,30.9
2021-11-22T05:19:00Z,00000200,01000000,0000.10,0000.23,-000.03,0000.00,-000.15,0000.05,0000.02,-000.16,0000.10,19.3,25.9,,00.0,0633.5,30.9
2021-11-22T05:20:00Z,00000200,01000000,-000.06,-000.04,0000.08,-000.22,0000.05,0000.20,0000.13,0000.10,-000.27,19.3,25.9,,00.0,0633.5,30.9
2021-11-22T05:21:00Z,00000200,01000000,0000.99,-000.02,-000.22,-000.31,0000.06,0000.12,-000.44,0000.07,0000.24,19.4,25.9,,00.0,0633.6,30.9
2021-11-22T05:22:00Z,00000200,01000000,-000.03,-000.25,-000.12,0000.25,0000.19,0000.02,0000.21,-000.26,-000.31,19.4,25.9,,00.0,0633.6,30.9
2021-11-22T05:23:00Z,00000200,01000000,-000.35,0000.25,-000.15,-000.45,0000.29,0000.02,-000.03,-000.10,0000.08,19.5,25.9,,00.0,0633.7,30.9
2021-11-22T05:24:00Z,00000200,01000000,-000.08,0000.24,-000.23,-000.30,0000.02,-000.05,-000.20,0000.00,-000.18,19.5,26.0,,00.0,0633.8,31.0
2021-11-22T05:25:00Z,00000200,01000000,0000.69,0000.30,-000.39,0000.43,0000.27,0000.05,-000.04,-000.11,-000.33,19.6,26.0,,00.0,0633.9,31.0
2021-11-22T05:26:00Z,00000200,01000000,-000.30,0000.04,-000.03,-000.09,0000.01,0000.04,-000.22,-000.25,0000.10,19.6,26.0,,00.0,0633.9,31.0
2021-11-22T05:27:00Z,00000200,01000000,-000.18,0000.28,-000.22,0000.32,0000.09,0000.18,0000.13,0000.36,0000.20,19.7,26.0,,00.0,0633.9,31.0
2021-11-22T05:28:00Z,00000200,01000000,-000.27,0000.14,0000.27,0000.18,0000.01,-000.33,-000.18,-000.41,-000.34,19.7,26.1,,00.0,0633.9,31.0
2021-11-22T05:29:00Z,00000200,01000000,-000.18,0000.32,-000.13,0000.02,0000.14,-000.04,0000.19,0000.05,0000.08,19.6,26.1,,00.0,0633.9,31.0
2021-11-22T05:30:00Z,00000200,01000000,-000.26,0000.43,-000.21,0000.23,0000.25,-000.14,-000.09,0000.33,0000.06,19.6,26.0,,00.0,0633.8,30.9
2021-11-22T05:31:00Z,00000200,01000000,-000.03,0000.23,0000.15,-000.07,-000.20,-000.14,-000.05,-000.42,-000.18,19.5,26.0,,00.0,0633.8,30.9
2021-11-22T05:32:00Z,00000200,01000000,-000.20,0000.24,-000.31,0000.11,0000.09,0000.18,0000.26,0000.40,0000.25,19.4,26.0,,00.0,0633.7,30.9
2021-11-22T05:33:00Z,00000200,01000000,0000.40,0000.02,-000.03,0000.16,-000.09,0000.17,0000.29,-000.17,-000.01,19.4,25.9,,00.0,0633.7,30.9
2021-11-22T05:34:00Z,00000200,01000000,-000.04,0000.22,-000.15,-000.08,-000.02,0000.29,0000.02,0000.46,0000.06,19.4,25.9,,00.0,0633.6,30.9
2021-11-22T05:35:00Z,00000200,01000000,0000.21,0000.39,-000.21,0000.40,0000.47,0000.27,0000.07,0000.08,0000.16,19.4,25.9,,00.0,0633.7,30.9
2021-11-22T05:36:00Z,00000200,01000000,0000.15,0000.37,-000.07,0000.41,0000.15,0000.11,0000.09,0000.10,0000.45,19.4,25.9,,00.0,0633.7,30.9
2021-11-22T05:37:00Z,00000200,01000000,-000.85,-000.01,0000.22,0000.26,-000.10,0000.26,0000.04,-000.12,-000.12,19.5,25.9,,00.0,0633.6,30.9
2021-11-22T05:38:00Z,00000200,01000000,-000.45,-000.07,0000.06,-000.05,-000.12,0000.38,0000.04,-000.12,0000.16,19.6,26.0,,00.0,0633.6,31.0
2021-11-22T05:39:00Z,00000200,01000000,-000.23,0000.05,-000.03,-000.43,-000.01,0000.22,0000.33,0000.56,0000.14,19.6,26.0,,00.0,0633.6,31.0
2021-11-22T05:40:00Z,00000200,01000000,0000.04,-000.08,0000.00,-000.09,-000.07,0000.16,-000.13,-000.00,-000.08,19.7,26.0,,00.0,0633.7,31.0
2021-11-22T05:41:00Z,00000200,01000000,-000.24,-000.16,0000.37,0000.28,0000.12,0000.30,-000.14,0000.05,-000.14,19.7,26.0,,00.0,0633.6,31.0
2021-11-22T05:42:00Z,00000200,01000000,0000.38,-000.13,-000.13,0000.07,0000.23,-000.12,-000.08,-000.34,0000.21,19.8,26.1,,00.0,0633.5,31.0
2021-11-22T05:43:00Z,00000200,01000000,0000.65,0000.26,-000.01,0000.32,0000.29,0000.23,0000.29,0000.38,0000.38,19.8,26.1,,00.0,0633.4,31.0
2021-11-22T05:44:00Z,00000200,01000000,0000.64,0000.24,-000.19,0000.30,0000.14,0000.11,0000.32,0000.27,-000.03,19.8,26.1,,00.0,0633.4,31.0
2021-11-22T05:45:00Z,00000200,01000000,0000.06,0000.06,0000.03,-000.17,0000.01,0000.21,-000.18,-000.27,-000.11,19.7,26.1,,00.0,0633.3,31.0
2021-11-22T05:46:00Z,00000200,01000000,0000.80,-000.06,0000.03,-000.82,0000.11,-000.08,0000.12,0000.26,0000.19,19.7,26.1,,00.0,0633.3,30.9
2021-11-22T05:47:00Z,00000200,01000000,0000.13,0000.25,-000.10,0000.42,0000.21,-000.08,0000.10,-000.08,-000.07,19.6,26.1,,00.0,0633.3,30.9
2021-11-22T05:48:00Z,00000200,01000000,-000.45,0000.02,0000.02,-000.14,0000.09,0000.17,-000.05,0000.04,-000.15,19.6,26.0,,00.0,0633.4,30.9
2021-11-22T05:49:00Z,00000200,01000000,-000.07,0000.14,0000.05,-000.55,-000.10,0000.29,0000.01,-000.31,-000.07,19.6,26.0,,00.0,0633.6,30.9
2021-11-22T05:50:00Z,00000200,01000000,0000.05,-000.01,-000.17,0000.43,0000.02,-000.25,-000.62,-000.14,-000.15,19.6,26.0,,00.0,0633.7,30.9
2021-11-22T05:51:00Z,00000200,01000000,-000.10,0000.43,-000.12,0000.15,0000.35,-000.10,0000.02,0000.00,-000.37,19.6,26.0,,00.0,0633.8,31.0
2021-11-22T05:52:00Z,00000200,01000000,-000.10,0000.12,-000.08,-000.05,0000.21,0000.14,0000.13,-000.20,0000.23,19.7,26.1,,00.0,0633.8,31.0
2021-11-22T05:53:00Z,00000200,01000000,-000.15,0000.39,0000.02,0000.48,0000.13,-000.19,-000.38,-000.16,-000.06,19.8,26.1,,00.0,0633.8,31.0
2021-11-22T05:54:00Z,00000200,01000000,-000.07,0000.36,-000.26,-000.22,-000.08,0000.10,0000.55,-000.06,-000.36,19.8,26.1,,00.0,0633.9,31.0
2021-11-22T05:55:00Z,00000200,01000000,-000.49,0000.32,-000.02,-000.56,0000.04,0000.14,-000.71,-000.13,-000.12,19.9,26.1,,00.0,0633.8,31.0
2021-11-22T05:56:00Z,00000200,01000000,-000.28,0000.22,0000.06,-000.88,-000.14,0000.39,0000.62,-000.01,0000.32,19.9,26.2,,00.0,0633.7,31.0
2021-11-22T05:57:00Z,00000200,41000000,,,,,,,0000.28,0000.91,0000.35,20.0,26.2,,00.0,0633.7,31.0
2021-11-22T05:58:00Z,00000200,61000000,,,,,,,-000.13,-000.22,0000.28,19.7,26.3,,00.0,0632.7,31.0
2021-11-22T05:59:00Z,00000200,21000000,,,,,,,-000.02,-000.03,-000.27,19.6,26.4,,00.0,0632.6,31.0
